Regional Weather Roundup
Issued by NWS

Home | Current Version | Previous Version | Text Only | Print | Product List | Glossary On
Versions: 1 2 3 4 5 6 7 8 9 10 11 12 13 14 15 16 17 18 19 20 21 22 23 24 25 26 27 28 29 30 31 32 33 34 35 36 37 38 39 40 41 42 43 44 45 46 47 48 49 50
000
ASUS43 KDMX 261806
RWRIA

WEATHER ROUNDUP FOR IOWA
NATIONAL WEATHER SERVICE DES MOINES IA
100 PM CDT WED APR 26 2017

NOTE: "FAIR" INDICATES FEW OR NO CLOUDS BELOW 12,000 FEET WITH NO
SIGNIFICANT WEATHER AND/OR OBSTRUCTIONS TO VISIBILITY.

* - THESE STATIONS ARE NOT NWS STATIONS...THUS NOT UNDER NWS
QUALITY CONTROL.  THEY ALSO DO NOT REPORT WEATHER SUCH
AS PRECIPITATION OR FOG.

IAZ001>003-012>014-020>022-031>034-043>046-261900-
   NORTHWEST IOWA

CITY           SKY/WX    TMP DP  RH WIND       PRES   REMARKS
CARROLL *      CLOUDY    43  39  87 NW22G29   29.61F
CHEROKEE *     CLOUDY    37  35  92 NW13      29.66S WCI  29
DENISON *      CLOUDY    39  36  87 NW20      29.66F WCI  30
LE MARS *      CLOUDY    37  34  87 NW16      29.70R WCI  28
ORANGE CITY *  CLOUDY    36  34  93 N12G18    29.66R WCI  27
SHELDON *      CLOUDY    36  34  93 NW15G21   29.64R WCI  26
SIOUX CITY     CLOUDY    38  32  79 N21G31    29.70R WCI  28
6HR MIN TEMP:  35; 6HR MAX TEMP:  39;

SPENCER        CLOUDY    39  35  86 NW16      29.62R WCI  30
6HR MIN TEMP:  37; 6HR MAX TEMP:  40;

STORM LAKE *     N/A     37  36  93 NW21      29.63S WCI  27
$$

IAZ055>058-069>071-079>083-090>094-261900-
   SOUTHWEST IOWA

CITY           SKY/WX    TMP DP  RH WIND       PRES   REMARKS
ATLANTIC *     CLOUDY    43  36  75 NW20      29.64F
AUDUBON *      CLOUDY    39  36  87 NW8G20    29.64S WCI  34
CLARINDA *     CLOUDY    45  36  70 N20G25    29.66F
COUNCIL BLFS *   N/A     43  37  81 NW22      29.66F
CRESTON *      CLOUDY    45  37  76 NW20G26   29.62S
HARLAN  *      CLOUDY    41  37  87 NW22G28   29.68F
LAMONI         CLOUDY    47  40  76 NW16      29.61S
6HR MIN TEMP:  41; 6HR MAX TEMP:  47;

RED OAK *      CLOUDY    43  36  75 NW14G23   29.65F
SHENANDOAH *   CLOUDY    45  36  70 N17       29.66F
$$

IAZ047>049-059>061-072>074-084-261900-
   CENTRAL IOWA

CITY           SKY/WX    TMP DP  RH WIND       PRES   REMARKS
AMES           CLOUDY    49  40  71 NW18G25   29.56R
6HR MIN TEMP:  43; 6HR MAX TEMP:  49;

ANKENY *       CLOUDY    48  39  71 NW14G24   29.59R
BOONE *        CLOUDY    46  39  76 NW22G30   29.56S
CHARITON *     CLOUDY    46  41  81 NW14      29.60R
DES MOINES     CLOUDY    50  39  66 NW21      29.58S
6HR MIN TEMP:  43; 6HR MAX TEMP:  50; 6HR PCP: TRACE;

GRINNELL*      CLOUDY    46  42  84 W13       29.56F
KNOXVILLE *    CLOUDY    46  41  81 W12       29.58R
MARSHALLTOWN   CLOUDY    48  40  73 NW20G29   29.53R
6HR MIN TEMP:  44; 6HR MAX TEMP:  49; 6HR PCP:  0.01;

NEWTON *       CLOUDY    48  41  76 NW9G18    29.56R
PELLA *        CLOUDY    47  42  82 W13       29.59R
PERRY *        CLOUDY    48  38  69 NW17G23   29.60S
$$

IAZ004>006-015-016-023>025-035-036-261900-
   NORTH CENTRAL IOWA

CITY           SKY/WX    TMP DP  RH WIND       PRES   REMARKS
ALGONA *       CLOUDY    41  37  87 NW17G28   29.58S
CLARION *      CLOUDY    43  43 100 NW21      29.55S
ESTHERVILLE    CLOUDY    38  36  92 NW18      29.60R WCI  28
6HR MIN TEMP:  36; 6HR MAX TEMP:  38;

FORT DODGE *   CLOUDY    43  36  75 NW15G21   29.59S
MASON CITY     CLOUDY    42  37  82 NW16      29.54R
6HR MIN TEMP:  41; 6HR MAX TEMP:  47;

FOREST CITY *  CLOUDY    41  41 100 NW15G22   29.54S
WEBSTER CITY * CLOUDY    45  39  81 NW24G30   29.54F
IOWA FALLS *   CLOUDY    47  39  73 NW23G29   29.54S
$$

IAZ007>011-017>019-026>030-037>042-050>054-066-261900-
   NORTHEAST IOWA

CITY           SKY/WX    TMP DP  RH WIND       PRES   REMARKS
CEDAR RAPIDS   CLOUDY    48  47  96 W16       29.52R
6HR MIN TEMP:  47; 6HR MAX TEMP:  51; 6HR PCP:  0.07;

CHARLES CITY * CLOUDY    45  43  93 NW15G23   29.50S
CLINTON *      CLOUDY    55  53  93 W17       29.50R
DECORAH *      CLOUDY    45  45 100 W8G17     29.46R
DUBUQUE        CLOUDY    51  49  92 SW16      29.48R
6HR MIN TEMP:  51; 6HR MAX TEMP:  58; 6HR PCP:  0.14;

MONTICELLO *   CLOUDY    50  48  93 W12       29.50R
OELWEIN *      CLOUDY    46  46 100 NW14G20   29.48R
WATERLOO       CLOUDY    47  41  80 NW14G22   29.50R
6HR MIN TEMP:  46; 6HR MAX TEMP:  50; 6HR PCP:  0.01;

$$

IAZ064-065-067-068-078-261900-
   EAST CENTRAL IOWA

CITY           SKY/WX    TMP DP  RH WIND       PRES   REMARKS
DAVENPORT      CLOUDY    53  49  86 W15       29.52R
6HR MIN TEMP:  53; 6HR MAX TEMP:  60; 6HR PCP:  0.11;

IOWA CITY      CLOUDY    51  45  79 W14       29.53F
6HR MIN TEMP:  49; 6HR MAX TEMP:  54; 6HR PCP:  0.03;

MT. PLEASANT * CLOUDY    48  46  92 W9        29.56S
MUSCATINE *    CLOUDY    52  46  82 W15       29.54S
QUAD CITIES    CLOUDY    55  49  80 W10       29.51R
6HR MIN TEMP:  55; 6HR MAX TEMP:  62; 6HR PCP:  0.12;

$$

IAZ062-063-075>077-085>089-095>099-261900-
   SOUTHEAST IOWA

CITY           SKY/WX    TMP DP  RH WIND       PRES   REMARKS
BURLINGTON     CLOUDY    51  47  86 W9        29.54F
6HR MIN TEMP:  51; 6HR MAX TEMP:  62; 6HR PCP:  0.01;

FAIRFIELD *    CLOUDY    46  43  87 W10G18    29.56R
FORT MADISON * CLOUDY    52  46  82 NW10      29.56F
KEOKUK *       CLOUDY    50  46  87 W10       29.57R
OSKALOOSA *    CLOUDY    47  42  84 NW16      29.57F
CENTERVILLE *  CLOUDY    46  41  81 W13       29.61R
OTTUMWA        CLOUDY    47  43  86 NW12      29.56F
6HR MIN TEMP:  45; 6HR MAX TEMP:  48; 6HR PCP: TRACE;

WASHINGTON *   CLOUDY    48  45  87 W12G20    29.56R
$$

ABBREVIATIONS USED IN REMARKS
   TC - TEMPERATURES IN CELSIUS
  WCI - WIND CHILL INDEX
   HX - HEAT INDEX
  VSB - VISIBILITY
$$




USA.gov is the U.S. government's official web portal to all federal, state and local government web resources and services.